Location: Newark
(34.9500°N, 139.9667°E)
Time: 23:09:48
(UTC+00:00)

Altair - Pass Details

Date: 10 December 2019
Orbit: 1502 x 1682 km, 47.2° (Epoch: 20 January)

Event Time Altitude Azimuth Distance (km) Brightness Sun altitude
Rises 08:53:33 0° 185° (S) 4,848 10.4 -16.9°
Reaches altitude 10° 08:57:44 10° 171° (S) 3,836 9.7 -17.8°
Maximum altitude 09:04:28 21° 126° (SE) 2,988 8.7 -19.1°
Enters shadow 09:06:39 20° 108° (ESE) 3,071 8.6 -19.5°
